DW0243 Weather Reports


time (UTC)temp
C
wind
direction
speed
KPH
gust
KPH
rain 1hr
cm
rain 24hr
cm
rain mn
cm
humidity
%
barometer
mb
20260508220459 8 69 0.0 0.0 0.00 0.00 0.00 90 1019.1
20260508215458 8 69 0.0 0.0 0.00 0.00 0.00 90 1019.1
20260508213500 9 69 0.0 0.0 0.00 0.00 0.00 88 1019.1
20260508212457 9 69 0.0 0.0 0.00 0.00 0.00 88 1019.2
20260508211455 10 69 0.0 6.4 0.00 0.00 0.00 87 1019.2
20260508210456 10 69 0.0 4.8 0.00 0.00 0.00 86 1019.1
20260508205450 10 69 0.0 3.2 0.00 0.00 0.00 86 1018.9
20260508204456 10 69 0.0 0.0 0.00 0.00 0.00 85 1018.9
20260508203457 11 69 1.6 4.8 0.00 0.00 0.00 84 1018.9
20260508202454 11 69 0.0 3.2 0.00 0.00 0.00 83 1018.9
20260508201458 11 69 0.0 0.0 0.00 0.00 0.00 83 1018.9
20260508200453 11 69 0.0 0.0 0.00 0.00 0.00 82 1018.8
20260508195456 12 69 0.0 3.2 0.00 0.00 0.00 81 1018.8
20260508194454 12 69 0.0 3.2 0.00 0.00 0.00 80 1018.7
20260508192452 12 57 4.8 9.7 0.00 0.00 0.00 78 1018.4
20260508191456 12 63 3.2 8.0 0.00 0.00 0.00 77 1018.2
20260508190457 13 58 3.2 8.0 0.00 0.00 0.00 77 1018.0
20260508185452 13 69 1.6 6.4 0.00 0.00 0.00 76 1017.9
20260508184451 13 61 3.2 8.0 0.00 0.00 0.00 75 1017.8
20260508183453 13 60 1.6 6.4 0.00 0.00 0.00 74 1017.8
20260508182450 13 73 4.8 11.3 0.00 0.00 0.00 72 1017.7
20260508181449 13 84 0.0 6.4 0.00 0.00 0.00 72 1017.8
20260508180455 13 92 3.2 11.3 0.00 0.00 0.00 70 1017.8
20260508175449 14 111 4.8 11.3 0.00 0.00 0.00 68 1017.6
20260508174451 15 50 0.0 3.2 0.00 0.00 0.00 68 1017.4
20260508173452 15 50 0.0 4.8 0.00 0.00 0.00 65 1017.4
20260508171450 15 50 1.6 4.8 0.00 0.00 0.00 63 1017.3
20260508170449 15 50 0.0 6.4 0.00 0.00 0.00 63 1017.1
20260508165504 15 49 3.2 6.4 0.00 0.00 0.00 61 1017.1
20260508163448 15 49 0.0 6.4 0.00 0.00 0.00 63 1017.1
20260508162448 15 49 3.2 6.4 0.00 0.00 0.00 62 1017.1
20260508161447 16 45 0.0 8.0 0.00 0.00 0.00 56 1017.2
20260508160449 16 68 0.0 0.0 0.00 0.00 0.00 61 1017.1
20260508153450 16 99 0.0 6.4 0.00 0.00 0.00 60 1017.3
20260508152449 15 212 0.0 4.8 0.00 0.00 0.00 61 1017.2
20260508151446 15 276 0.0 4.8 0.00 0.00 0.00 63 1017.4
20260508150448 15 244 0.0 4.8 0.00 0.00 0.00 64 1017.4
20260508145449 15 244 0.0 3.2 0.00 0.00 0.00 64 1017.5
20260508144446 15 246 0.0 0.0 0.00 0.00 0.00 65 1017.5
20260508143446 15 246 0.0 0.0 0.00 0.00 0.00 64 1017.5
20260508142446 14 246 0.0 0.0 0.00 0.00 0.00 67 1017.5
20260508140446 14 246 0.0 4.8 0.00 0.00 0.00 66 1017.7
20260508135445 14 246 0.0 3.2 0.00 0.00 0.00 67 1017.8
20260508134447 14 246 0.0 6.4 0.00 0.00 0.00 67 1017.8
20260508133445 14 256 4.8 8.0 0.00 0.00 0.00 66 1017.8
20260508132444 15 176 0.0 4.8 0.00 0.00 0.00 58 1017.7
20260508131446 15 148 0.0 0.0 0.00 0.00 0.00 65 1017.9
20260508130452 15 148 0.0 4.8 0.00 0.00 0.00 61 1017.8
20260508124443 15 115 0.0 9.7 0.00 0.00 0.00 59 1017.9
20260508123459 15 105 6.4 12.9 0.00 0.00 0.00 65 1017.9
20260508122458 15 51 3.2 11.3 0.00 0.00 0.00 62 1017.9
20260508121446 15 84 4.8 12.9 0.00 0.00 0.00 56 1017.9
20260508120456 15 63 3.2 8.0 0.00 0.00 0.00 64 1017.9
20260508115442 16 346 4.8 14.5 0.00 0.00 0.00 63 1017.9
20260508114445 16 102 8.0 12.9 0.00 0.00 0.00 63 1017.9
20260508113453 16 127 3.2 12.9 0.00 0.00 0.00 55 1017.8
20260508112447 15 74 1.6 11.3 0.00 0.00 0.00 63 1017.9
20260508111443 15 71 3.2 12.9 0.00 0.00 0.00 67 1018.0
20260508110441 15 111 9.7 16.1 0.00 0.00 0.00 66 1018.1
20260508105441 15 352 3.2 12.9 0.00 0.00 0.00 64 1018.0
20260508103442 15 9 1.6 6.4 0.00 0.00 0.00 66 1018.2
20260508101442 15 95 1.6 6.4 0.00 0.00 0.00 70 1018.3
20260508100439 14 98 0.0 6.4 0.00 0.00 0.00 68 1018.4
20260508095439 13 49 1.6 12.9 0.00 0.00 0.00 70 1018.4
20260508094439 13 78 0.0 6.4 0.00 0.00 0.00 72 1018.4
20260508093438 13 27 3.2 9.7 0.00 0.00 0.00 71 1018.4
20260508092437 13 103 3.2 6.4 0.00 0.00 0.00 72 1018.5
20260508090437 12 72 6.4 11.3 0.00 0.00 0.00 75 1018.6
20260508085437 12 113 4.8 12.9 0.00 0.00 0.00 76 1018.7
20260508084438 12 115 0.0 8.0 0.00 0.00 0.00 78 1018.7
20260508082438 11 43 3.2 4.8 0.00 0.00 0.00 79 1018.8
20260508081438 11 40 3.2 6.4 0.00 0.00 0.00 79 1018.8
20260508075438 11 96 3.2 9.7 0.00 0.00 0.00 80 1018.9
20260508074437 11 123 3.2 4.8 0.00 0.00 0.00 82 1018.9
20260508073438 10 65 1.6 6.4 0.00 0.00 0.00 84 1018.9
20260508072438 10 63 0.0 6.4 0.00 0.00 0.00 83 1018.9
20260508071438 10 75 0.0 8.0 0.00 0.00 0.00 86 1018.9
20260508070436 9 85 0.0 0.0 0.00 0.00 0.00 86 1018.8
20260508065434 9 85 0.0 4.8 0.00 0.00 0.00 88 1018.8
20260508064437 8 84 3.2 6.4 0.00 0.00 0.00 89 1018.6
20260508063438 8 84 3.2 6.4 0.00 0.00 0.00 91 1018.5
20260508062434 8 82 1.6 3.2 0.00 0.00 0.00 91 1018.6
20260508060449 8 82 0.0 0.0 0.00 0.00 0.00 93 1018.4
20260508053433 7 82 0.0 0.0 0.00 0.00 0.00 94 1018.3
20260508052430 7 82 0.0 0.0 0.00 0.03 0.00 94 1018.3
20260508051429 7 82 0.0 0.0 0.00 0.03 0.00 94 1018.0
20260508045427 7 82 0.0 0.0 0.00 0.03 0.00 95 1017.9
20260508044426 7 82 0.0 0.0 0.00 0.03 0.00 95 1018.0
20260508043429 6 82 0.0 0.0 0.00 0.03 0.00 95 1017.8
20260508041428 6 82 0.0 0.0 0.00 0.03 0.00 95 1017.9
20260508040428 6 82 0.0 0.0 0.00 0.03 0.00 95 1017.8
20260508035422 6 82 0.0 0.0 0.00 0.03 0.00 94 1017.8
20260508034422 6 82 0.0 0.0 0.00 0.03 0.00 94 1017.8
20260508033420 6 82 0.0 0.0 0.00 0.03 0.00 94 1017.8
20260508032422 6 82 0.0 0.0 0.00 0.03 0.00 95 1017.7
20260508031419 6 82 0.0 0.0 0.00 0.03 0.00 94 1017.8
20260508030419 6 82 0.0 0.0 0.00 0.03 0.00 94 1017.7
20260508022421 7 82 0.0 0.0 0.00 0.03 0.00 94 1017.6
20260508020421 7 82 0.0 0.0 0.00 0.03 0.00 93 1017.6
20260508015418 7 82 0.0 0.0 0.00 0.03 0.00 93 1017.7
20260508014418 8 82 0.0 0.0 0.00 0.03 0.00 93 1017.7
20260508013420 8 82 0.0 0.0 0.00 0.03 0.00 93 1017.6
20260508012421 8 82 0.0 0.0 0.00 0.03 0.00 93 1017.5
20260508011418 8 82 1.6 3.2 0.00 0.03 0.00 93 1017.4
20260508010418 8 83 0.0 4.8 0.00 0.03 0.00 93 1017.4
20260508005412 8 84 0.0 6.4 0.00 0.03 0.00 93 1017.5
20260508004412 8 90 1.6 9.7 0.00 0.03 0.00 93 1017.6
20260508003412 8 78 0.0 4.8 0.00 0.03 0.00 93 1017.7
20260508002413 8 78 1.6 6.4 0.00 0.03 0.00 93 1017.6
20260508001414 8 75 0.0 6.4 0.00 0.03 0.00 93 1017.7
20260508000412 8 73 1.6 9.7 0.00 0.03 0.00 93 1017.9
20260507235409 8 76 3.2 6.4 0.00 0.03 0.00 92 1017.9
20260507234409 8 82 1.6 6.4 0.00 0.03 0.00 92 1017.9
20260507233407 8 89 0.0 6.4 0.00 0.03 0.00 92 1017.9
20260507231410 8 105 3.2 11.3 0.00 0.03 0.00 92 1018.0
20260507230404 8 91 4.8 8.0 0.00 0.03 0.00 92 1017.8
20260507225406 8 84 0.0 11.3 0.00 0.03 0.00 93 1018.0
20260507224408 8 84 3.2 11.3 0.00 0.03 0.00 93 1017.9
20260507223407 8 87 1.6 4.8 0.00 0.03 0.00 92 1017.8
20260507222403 8 86 1.6 4.8 0.00 0.03 0.00 92 1017.7
20260507221405 8 86 1.6 9.7 0.00 0.03 0.00 92 1017.7